[[{"header":{"parameterUnit":"m.s-1","parameterCategory":1,"la1":30.2991,"la2":30.254,"lo1":-89.0895,"lo2":-89.0444,"dx":0.0017,"dy":0.0017,"nx":28,"ny":28,"refTime":"2022-11-30T15:00:00:Z","depth":0,"parameterNumber":2,"parameterNumberName":"U-component_of_WINDS"},"data":[0,0,0,0,0,0,0,0,0,0,0,0,0,0,0,0,0,0,0,0,0,0,0,0,0,0,0,0,0,0,0,0,0,0,0,0,0,0,0,0,0,0,0,0,0,0,0,0,0,0,0,0,0,0,0,0,0,0,1.3992,1.3993,0,1.4096,1.4097,1.4098,1.4122,1.4122,1.4121,1.412,1.4227,1.4231,1.4234,0,0,0,0,0,0,0,0,0,0,0,0,0,1.3821,1.3824,1.3992,1.3993,1.3995,1.4095,1.4097,1.4098,1.4123,1.4122,1.4121,1.412,1.4226,1.423,1.4235,0,0,0,0,0,0,0,0,0,0,0,0,0,1.3907,1.3825,1.3992,1.4019,1.4022,1.4095,1.4097,1.4099,1.4123,1.4122,1.4121,1.412,1.4225,1.423,1.4235,1.4289,0,0,1.4251,1.4253,0,0,0,0,0,0,0,0,1.3902,1.3913,1.4014,1.4017,1.4021,1.4095,1.4076,1.4162,1.4123,1.4085,1.412,1.4119,1.4184,1.4193,1.4215,1.4294,1.4298,1.4252,1.4255,1.4257,1.4259,0,0,0,0,0,0,0,1.3896,1.3909,1.4033,1.4015,1.402,1.4028,1.4039,1.4092,1.4139,1.4088,1.409,1.4102,1.4186,1.4209,1.4217,1.43,1.4252,1.4256,1.4259,1.4262,1.4436,1.4437,0,0,0,0,0,0,1.3885,1.3904,1.403,1.4036,1.3958,1.4032,1.4044,1.4072,1.4139,1.4148,1.4103,1.4103,1.4201,1.4211,1.4221,1.4293,1.4257,1.4262,1.4265,1.4434,1.4436,1.4438,0,0,0,0,0,0,1.3881,1.3896,1.4026,1.3971,1.3988,1.4036,1.4067,1.4075,1.4098,1.415,1.4159,1.4117,1.4201,1.4214,1.4273,1.4297,1.4264,1.4269,1.4433,1.4435,1.4437,1.4433,0,0,0,0,0,0,1.3876,1.3894,1.3913,1.3971,1.3991,1.4074,1.4069,1.4078,1.4107,1.4108,1.4166,1.4175,1.4201,1.4265,1.4279,1.4303,1.4273,1.4431,1.4434,1.4436,1.4432,1.4435,1.4438,0,0,0,0,0,1.387,1.3907,1.3914,1.3929,1.4015,1.4075,1.4087,1.4116,1.4109,1.413,1.4164,1.4173,1.4292,1.4271,1.4286,1.4313,1.4429,1.4433,1.4436,1.443,1.4434,1.4438,0,0,0,0,0,0,1.3849,1.3914,1.3923,1.3979,1.4022,1.4079,1.4106,1.4118,1.4163,1.4162,1.4197,1.421,1.4269,1.4297,1.4272,1.4372,1.4361,1.4367,1.4351,1.4356,1.4359,1.4351,1.4278,0,0,0,0,0,1.3851,1.3893,1.3949,1.3993,1.4014,1.4057,1.4084,1.4103,1.4148,1.4166,1.4204,1.4249,1.4298,1.4328,1.4375,1.4436,1.4452,1.4463,1.4466,1.4468,1.4474,1.4515,1.4522,1.4449,1.4449,1.4449,0,0,1.3855,1.3897,1.3921,1.399,1.4025,1.4071,1.4071,1.4117,1.4153,1.4173,1.4233,1.4263,1.4316,1.4378,1.4408,1.4403,1.4498,1.4473,1.4474,1.4478,1.4519,1.4526,1.4532,1.4451,1.4451,1.445,0,0,1.3887,1.3921,1.3964,1.4001,1.4055,1.4084,1.4095,1.4152,1.4173,1.4234,1.4252,1.4296,1.4376,1.4415,1.4445,1.4499,1.4511,1.4513,1.4531,1.457,1.4576,1.4582,1.4605,1.4613,1.4519,1.4519,1.4519,0,1.3885,1.3953,1.3985,1.4032,1.4065,1.4088,1.4135,1.4168,1.4235,1.4258,1.4252,1.4359,1.4395,1.447,1.4484,1.4506,1.4523,1.4507,1.4573,1.4578,1.4584,1.4607,1.4615,1.4519,1.4519,1.4519,1.4519,0,1.3951,1.3998,1.4027,1.4093,1.4129,1.4175,1.4217,1.425,1.4268,1.4299,1.4364,1.441,1.4469,1.4488,1.4505,1.4568,1.4564,1.4565,1.4555,1.4591,1.4613,1.4622,1.4519,1.4519,1.4519,1.4519,0,0,1.3967,1.4055,1.4066,1.4099,1.4163,1.4202,1.4252,1.4311,1.4341,1.4388,1.4433,1.4505,1.4509,1.4543,1.4565,1.46,1.4647,1.4598,1.46,1.4608,1.4725,1.4725,1.4734,1.4655,1.4657,1.4658,1.4722,0,1.4009,1.4099,1.4132,1.4207,1.4254,1.4281,1.4325,1.4372,1.4404,1.4451,1.4486,1.4538,1.4536,1.4558,1.4594,1.4633,1.4671,1.4629,1.4701,1.4703,1.4688,1.4745,1.4744,1.4801,1.473,1.4731,1.4732,0,1.4067,1.4118,1.4198,1.4263,1.4284,1.4324,1.4384,1.4428,1.4483,1.4505,1.4547,1.4569,1.4627,1.4614,1.4697,1.4668,1.47,1.4725,1.4728,1.4737,1.472,1.4758,1.4819,1.4829,1.4746,1.4745,1.4744,0,1.4076,1.4164,1.4225,1.4252,1.4328,1.4356,1.439,1.4444,1.448,1.4534,1.4559,1.4618,1.4651,1.4698,1.4738,1.4724,1.4819,1.4808,1.4842,1.4841,1.486,1.4859,1.4931,1.4878,1.4878,1.4878,1.4877,0,1.4119,1.4168,1.4231,1.4268,1.4325,1.4366,1.4422,1.4457,1.4507,1.4555,1.4581,1.4626,1.4674,1.4726,1.4757,1.4825,1.4839,1.486,1.4868,1.4859,1.4857,1.4881,1.4879,1.488,1.4879,1.4879,1.4878,0,1.4137,1.418,1.4249,1.4318,1.4337,1.4377,1.4438,1.4477,1.4513,1.4573,1.459,1.4646,1.4709,1.4754,1.4834,1.4856,1.493,1.4936,1.4911,1.4916,1.4949,1.4946,1.504,1.5057,1.499,1.4991,1.4991,0,1.4162,1.4201,1.4276,1.431,1.4344,1.4398,1.4436,1.448,1.4519,1.459,1.4622,1.4688,1.4742,1.4843,1.4893,1.4957,1.4967,1.4996,1.4976,1.4968,1.4972,1.497,1.4976,1.4998,1.4999,1.4999,1.4999,0,1.4203,1.4225,1.4278,1.4342,1.4387,1.4438,1.449,1.4517,1.4571,1.4614,1.468,1.4723,1.4809,1.4876,1.4946,1.4983,1.5002,1.5006,1.5018,1.5009,1.4995,1.5007,1.4922,1.5003,1.5003,1.5002,1.5002,1.5002,1.4228,1.4266,1.4326,1.4387,1.4432,1.4482,1.4524,1.4568,1.4623,1.4697,1.472,1.479,1.4852,1.4949,1.4988,1.5046,1.5044,1.506,1.5065,1.5069,1.5071,1.4985,1.5059,1.5059,1.5058,1.5058,1.5058,0,1.4273,1.4315,1.437,1.4445,1.4494,1.4509,1.4569,1.461,1.4672,1.4728,1.4783,1.4863,1.493,1.4987,1.5058,1.5094,1.5105,1.5111,1.511,1.5119,1.5066,1.505,1.5102,1.5102,1.5101,1.5101,1.5101,1.5101,1.4302,1.4369,1.4399,1.4492,1.4534,1.4603,1.4637,1.4686,1.4732,1.482,1.4876,1.4914,1.4973,1.5049,1.5113,1.5129,1.5155,1.516,1.5178,1.5127,1.5122,1.5117,1.5103,1.5164,1.5165,1.5227,1.5227,1.5228]},{"header":{"parameterUnit":"m.s-1","parameterCategory":1,"la1":30.2991,"la2":30.254,"lo1":-89.0895,"lo2":-89.0444,"dx":0.0017,"dy":0.0017,"nx":28,"ny":28,"refTime":"2022-11-30T15:00:00:Z","depth":0,"parameterNumber":3,"parameterNumberName":"V-component_of_WINDS"},"data":[0,0,0,0,0,0,0,0,0,0,0,0,0,0,0,0,0,0,0,0,0,0,0,0,0,0,0,0,0,0,0,0,0,0,0,0,0,0,0,0,0,0,0,0,0,0,0,0,0,0,0,0,0,0,0,0,0,0,-7.3358,-7.3358,0,-7.3384,-7.3384,-7.3384,-7.3347,-7.3346,-7.3345,-7.3344,-7.3366,-7.3367,-7.3369,0,0,0,0,0,0,0,0,0,0,0,0,0,-7.3274,-7.3275,-7.3358,-7.3358,-7.3359,-7.3384,-7.3384,-7.3384,-7.3348,-7.3346,-7.3345,-7.3343,-7.3365,-7.3367,-7.3369,0,0,0,0,0,0,0,0,0,0,0,0,0,-7.3306,-7.3276,-7.3358,-7.3344,-7.3342,-7.3384,-7.3384,-7.3384,-7.3348,-7.3346,-7.3344,-7.3342,-7.3364,-7.3367,-7.337,-7.3425,0,0,-7.3378,-7.3379,0,0,0,0,0,0,0,0,-7.3304,-7.3309,-7.3345,-7.3345,-7.3344,-7.336,-7.3362,-7.3398,-7.3348,-7.3346,-7.3344,-7.3341,-7.3365,-7.3368,-7.3377,-7.3426,-7.3427,-7.3378,-7.338,-7.3381,-7.3382,0,0,0,0,0,0,0,-7.3302,-7.3308,-7.3368,-7.3346,-7.3345,-7.3335,-7.3337,-7.3369,-7.3366,-7.3346,-7.3343,-7.3347,-7.3364,-7.3374,-7.3377,-7.3427,-7.3378,-7.338,-7.3382,-7.3383,-7.3523,-7.3525,0,0,0,0,0,0,-7.3302,-7.3306,-7.3367,-7.3369,-7.3319,-7.3338,-7.334,-7.3357,-7.3365,-7.3365,-7.3349,-7.3345,-7.337,-7.3374,-7.3377,-7.3442,-7.3381,-7.3383,-7.3385,-7.352,-7.3523,-7.3525,0,0,0,0,0,0,-7.33,-7.3308,-7.3366,-7.3337,-7.3343,-7.3341,-7.336,-7.3358,-7.3368,-7.3368,-7.3366,-7.3359,-7.3369,-7.3374,-7.3414,-7.3442,-7.3385,-7.3387,-7.3518,-7.3521,-7.3524,-7.3572,0,0,0,0,0,0,-7.3298,-7.3307,-7.3329,-7.3338,-7.3345,-7.3403,-7.3362,-7.336,-7.3373,-7.3369,-7.3377,-7.3377,-7.3368,-7.341,-7.3416,-7.3445,-7.3389,-7.3515,-7.3519,-7.3523,-7.3568,-7.3577,-7.3584,0,0,0,0,0,-7.3295,-7.3341,-7.333,-7.3338,-7.3372,-7.3405,-7.3409,-7.3399,-7.3376,-7.3397,-7.3397,-7.3377,-7.3439,-7.3414,-7.3421,-7.3451,-7.3513,-7.3518,-7.3523,-7.3564,-7.3575,-7.3584,0,0,0,0,0,0,-7.3333,-7.3341,-7.333,-7.338,-7.3392,-7.3398,-7.3425,-7.341,-7.3428,-7.3423,-7.3409,-7.3411,-7.3454,-7.3456,-7.3429,-7.3505,-7.3472,-7.3478,-7.3501,-7.3511,-7.3519,-7.3517,-7.3391,0,0,0,0,0,-7.3348,-7.3375,-7.338,-7.3423,-7.343,-7.3427,-7.344,-7.3432,-7.3443,-7.3448,-7.345,-7.3461,-7.3483,-7.3497,-7.3518,-7.3569,-7.3569,-7.3593,-7.3601,-7.3608,-7.3613,-7.3639,-7.365,-7.3541,-7.3541,-7.3541,0,0,-7.3377,-7.3385,-7.3403,-7.3431,-7.344,-7.3467,-7.3431,-7.3461,-7.348,-7.3452,-7.349,-7.3492,-7.3503,-7.3549,-7.3569,-7.3553,-7.3643,-7.3614,-7.3619,-7.362,-7.3645,-7.3656,-7.3665,-7.3544,-7.3543,-7.3543,0,0,-7.3445,-7.3454,-7.3491,-7.3501,-7.3515,-7.3513,-7.3522,-7.3531,-7.3532,-7.357,-7.355,-7.3572,-7.361,-7.3619,-7.3628,-7.3701,-7.3683,-7.3708,-7.3749,-7.3775,-7.3784,-7.3791,-7.3816,-7.3826,-7.3714,-7.3714,-7.3714,0,-7.3479,-7.352,-7.3512,-7.3544,-7.3556,-7.3534,-7.3571,-7.358,-7.36,-7.3608,-7.359,-7.3638,-7.3644,-7.3691,-7.3709,-7.3718,-7.3727,-7.3706,-7.3784,-7.3791,-7.3798,-7.3822,-7.3831,-7.3717,-7.3716,-7.3716,-7.3716,0,-7.3561,-7.359,-7.3618,-7.364,-7.3656,-7.369,-7.3685,-7.3703,-7.3693,-7.3693,-7.3732,-7.3739,-7.376,-7.3771,-7.3761,-7.3817,-7.3806,-7.3786,-7.3753,-7.3811,-7.3833,-7.3842,-7.3721,-7.372,-7.3719,-7.3718,0,0,-7.3651,-7.3669,-7.3679,-7.3689,-7.3704,-7.3725,-7.3758,-7.3781,-7.3795,-7.381,-7.3836,-7.387,-7.3852,-7.3863,-7.3854,-7.3878,-7.3934,-7.3855,-7.3855,-7.3868,-7.3995,-7.4008,-7.4019,-7.3923,-7.3925,-7.3926,-7.3993,0,-7.3717,-7.3776,-7.377,-7.3825,-7.3851,-7.3832,-7.386,-7.3872,-7.3873,-7.3894,-7.3894,-7.3918,-7.3893,-7.39,-7.3922,-7.3923,-7.3959,-7.3918,-7.3946,-7.3947,-7.3942,-7.4031,-7.4045,-7.4108,-7.4002,-7.4003,-7.4004,0,-7.3802,-7.3822,-7.388,-7.3892,-7.3903,-7.3929,-7.3949,-7.397,-7.3983,-7.3982,-7.3995,-7.3983,-7.4015,-7.3983,-7.4026,-7.3998,-7.401,-7.4012,-7.4014,-7.4014,-7.3978,-7.4032,-7.4128,-7.4136,-7.4018,-7.4017,-7.4016,0,-7.386,-7.3901,-7.3941,-7.395,-7.3965,-7.3984,-7.3991,-7.4002,-7.4016,-7.4034,-7.4042,-7.4063,-7.4074,-7.409,-7.4083,-7.406,-7.4127,-7.4095,-7.4126,-7.4126,-7.4139,-7.4138,-7.4236,-7.415,-7.4149,-7.4149,-7.4149,0,-7.3934,-7.397,-7.3968,-7.3992,-7.4032,-7.4025,-7.4064,-7.4068,-7.4079,-7.4103,-7.4087,-7.411,-7.4101,-7.4123,-7.4118,-7.4154,-7.4159,-7.4158,-7.4156,-7.4158,-7.4158,-7.4164,-7.4159,-7.4152,-7.4151,-7.4151,-7.415,0,-7.4004,-7.4004,-7.4047,-7.4059,-7.4062,-7.4091,-7.41,-7.4123,-7.4124,-7.4154,-7.4161,-7.4161,-7.4186,-7.4182,-7.4209,-7.4206,-7.4251,-7.4244,-7.4247,-7.4244,-7.4275,-7.4272,-7.4379,-7.4392,-7.4299,-7.43,-7.4301,0,-7.405,-7.4077,-7.4093,-7.4109,-7.4118,-7.4144,-7.4158,-7.4153,-7.4169,-7.4186,-7.4207,-7.4231,-7.4249,-7.429,-7.4292,-7.4313,-7.4305,-7.4342,-7.4308,-7.431,-7.4304,-7.4302,-7.4304,-7.4347,-7.4348,-7.4349,-7.435,0,-7.4131,-7.413,-7.4153,-7.4177,-7.4196,-7.4214,-7.4229,-7.4243,-7.4239,-7.4258,-7.4284,-7.4299,-7.4328,-7.4351,-7.4371,-7.4377,-7.4362,-7.4361,-7.4369,-7.4371,-7.4371,-7.437,-7.4263,-7.4358,-7.4357,-7.4357,-7.4356,-7.4356,-7.4189,-7.4213,-7.4228,-7.4254,-7.4266,-7.4282,-7.4304,-7.4309,-7.4331,-7.4355,-7.4351,-7.438,-7.4392,-7.4418,-7.4426,-7.4448,-7.4434,-7.4446,-7.4449,-7.4452,-7.4455,-7.4369,-7.4452,-7.4452,-7.4451,-7.4451,-7.4451,0,-7.4268,-7.4277,-7.4302,-7.4326,-7.4347,-7.4334,-7.4352,-7.4369,-7.4396,-7.441,-7.443,-7.446,-7.4483,-7.4488,-7.451,-7.4526,-7.452,-7.4532,-7.453,-7.4531,-7.4466,-7.4457,-7.4537,-7.4537,-7.4537,-7.4537,-7.4537,-7.4537,-7.4311,-7.4351,-7.4352,-7.4397,-7.4406,-7.4436,-7.4447,-7.4462,-7.4473,-7.4508,-7.4528,-7.4532,-7.4541,-7.4564,-7.4585,-7.4585,-7.4593,-7.4608,-7.4605,-7.4544,-7.4536,-7.4527,-7.4518,-7.461,-7.461,-7.4668,-7.4668,-7.4669]}]]